Content
SEND FEEDBACK

Daily
Averages
Monthly
Summary
Brazil

TERESINA, PIAUI


Home > South America > Brazil > Piaui
Elevation: 328 feet     Latitude: 05 03S     Longitude: 042 48W

WEATHER
 
SELECT A DAY
Number of Records: 163,731;   Date Range: 6/30/96 - 7/30/14
 
SHARE

PRINT THIS DATA

[ ← Previous Day ]
WEATHER ALMANAC - MARCH 19, 2013
[ Next Day → ]
[ °C ]   °F
Weather ElementAverageHighLow
Temperature77.7 °F86 °F (1:00 pm)73.4 °F (4:00 am)
Dewpoint75.9 °F78.8 °F (11:00 am)73 °F (3:00 am)
Humidity94.4 %100 % (4:00 am)74 % (1:00 pm)
Barometer29.82 in29.87 in (9:00 am)29.77 in (2:00 pm)
Wind Speed1.6 mph12.7 mph (2:00 pm)
Weather ElementAverage
Visibility6.7 mi
Wind DirectionENE (62.6 °)

Weather ElementTotal
Precipitation---
Cooling Degree Days14.7 (Base 65)
Growing Degree Days29.7 (Base 50)
Averaged from 30 records on March 19, 2013
WEATHER CONDITIONS BREAKOUT
WIND DIRECTION BREAKOUT
WEATHER BY HOUR - MARCH 19, 2013
[ °C ]   °F
Local TimeTemperatureDewpointHumidityBarometerVisibilityWind DirectionWind SpeedGust SpeedPrecipitationEventsConditions
1:00 AM78.8 °F77.0 °F94 %29.80 inCalmClear
1:40 AM78.8 °F77.0 °F94 %29.83 in6.2 miCalmMostly Cloudy
2:00 AM78.8 °F77.0 °F94 %29.83 in6.2 miEast (100°)5.8 mphRainLight Rain
3:00 AM74.0 °F73.0 °F96 %29.80 in7.0 miCalmRainLight Rain
3:00 AM75.2 °F73.4 °F94 %29.80 in6.2 miCalmRainLight Rain
4:00 AM73.4 °F73.4 °F100 %29.80 in6.2 miCalmRainLight Rain
5:00 AM73.4 °F73.4 °F100 %29.80 in6.2 miCalmRainLight Rain
6:00 AM73.4 °F73.4 °F100 %29.80 in6.2 miCalmRainLight Rain
7:00 AM75.2 °F75.2 °F100 %29.83 in6.2 miCalmRainLight Rain
8:00 AM75.2 °F75.2 °F100 %29.86 in6.2 miSE (140°)3.5 mphRainLight Rain
8:36 AM75.2 °F75.2 °F100 %29.86 in6.2 miSSW (200°)2.3 mphRainLight Rain
9:00 AM77.0 °F76.0 °F98 %29.87 in11.0 miCalmRainLight Rain
9:00 AM77.0 °F77.0 °F100 %29.86 in6.2 miCalmRainLight Rain
10:00 AM78.8 °F77.0 °F94 %29.86 in6.2 miSSW (200°)2.3 mphMostly Cloudy
11:00 AM82.4 °F78.8 °F89 %29.86 in6.2 miCalmOvercast
12:00 PM84.2 °F77.0 °F79 %29.83 in6.2 miCalmMostly Cloudy
1:00 PM86.0 °F77.0 °F74 %29.80 in6.2 miSSE (160°)2.3 mphMostly Cloudy
2:00 PM86.0 °F77.0 °F74 %29.77 in3.1 miSSE (160°)12.7 mphRainLight Rain
3:00 PM78.0 °F76.0 °F93 %29.78 in12.0 miSE (130°)4.6 mphRainLight Rain
3:00 PM78.8 °F77.0 °F94 %29.77 in6.2 miSE (130°)4.6 mphMostly Cloudy
4:00 PM78.8 °F77.0 °F94 %29.77 in6.2 miESE (110°)3.5 mphMostly Cloudy
5:00 PM78.8 °F75.2 °F89 %29.77 in6.2 miCalmOvercast
6:00 PM77.0 °F75.2 °F94 %29.80 in6.2 miNNE (30°)3.5 mphOvercast
7:00 PM77.0 °F75.2 °F94 %29.80 in6.2 miCalmOvercast
8:00 PM77.0 °F75.2 °F94 %29.83 in6.2 miCalmRainLight Rain
9:00 PM76.0 °F76.0 °F100 %29.84 in12.0 miCalmRainLight Rain
9:00 PM77.0 °F77.0 °F100 %29.83 in6.2 miCalmOvercast
10:00 PM77.0 °F77.0 °F100 %29.86 in6.2 miNNW (330°)3.5 mphRainLight Rain
10:40 PM77.0 °F77.0 °F100 %29.86 in6.2 miCalmRainLight Rain
11:00 PM77.0 °F77.0 °F100 %29.86 in6.2 miCalmOvercast
Hourly data recorded from SBTE, located miles away from Teresina, Piaui







STORIES FROM OUR PARTNERS